Location: D?uga
(50.2667°N, 19.7833°E)
Time: 15:14:52
(UTC+00:00)

Cosmos 2322 - Pass Details

Date: 23 May 2024
Orbit: 839 x 854 km, 71.0° (Epoch: 11 June)

Event Time Altitude Azimuth Distance (km) Brightness Sun altitude
Rises 01:37:26 0° 331° (NNW) 3,433 7.1 -8.8°
Reaches altitude 10° 01:39:55 10° 334° (NNW) 2,491 6.4 -8.5°
Maximum altitude 01:45:38 69° 58° (ENE) 910 4.2 -7.9°
Drops below altitude 10° 01:51:17 10° 142° (SE) 2,466 6.1 -7.2°
Sets 01:53:44 0° 145° (SE) 3,395 6.7 -7.0°
